Time,TemperatureF,DewpointF,PressureIn,WindDirection,WindDirectionDegrees,WindSpeedMPH,WindSpeedGustMPH,Humidity,HourlyPrecipIn,Conditions,Clouds,dailyrainin,SoftwareType,DateUTC
2013-06-02 00:01:00,71.0,65.6,29.78,ESE,105,0.0,0.0,83,0.00,,,0.02,Wunderground v.1.15,2013-06-02 04:01:00,
2013-06-02 00:02:00,71.0,65.6,29.78,ESE,105,0.0,0.0,83,0.00,,,0.02,Wunderground v.1.15,2013-06-02 04:02:00,
2013-06-02 00:03:00,71.1,65.7,29.78,ESE,105,0.0,0.0,83,0.00,,,0.02,Wunderground v.1.15,2013-06-02 04:03:00,
2013-06-02 00:04:00,71.1,65.7,29.78,ESE,105,0.0,0.0,83,0.00,,,0.02,Wunderground v.1.15,2013-06-02 04:04:00,
2013-06-02 00:05:00,71.1,65.7,29.78,ESE,105,0.0,0.0,83,0.00,,,0.00,Wunderground v.1.15,2013-06-02 04:05:00,
2013-06-02 00:11:00,71.2,65.4,29.78,ESE,105,0.0,0.0,82,0.00,,,0.00,Wunderground v.1.15,2013-06-02 04:11:00,
2013-06-02 00:16:00,71.6,65.1,29.77,ESE,115,0.0,0.0,80,0.00,,,0.00,Wunderground v.1.15,2013-06-02 04:16:00,
2013-06-02 00:22:00,72.7,65.4,29.77,ESE,110,1.0,1.0,78,0.00,,,0.00,Wunderground v.1.15,2013-06-02 04:22:00,
2013-06-02 00:27:00,73.3,65.7,29.76,ESE,108,0.0,2.0,77,0.00,,,0.00,Wunderground v.1.15,2013-06-02 04:27:00,
2013-06-02 00:32:00,73.4,65.4,29.76,ESE,115,0.0,2.0,76,0.00,,,0.00,Wunderground v.1.15,2013-06-02 04:32:00,
2013-06-02 00:37:00,73.5,65.8,29.76,SE,126,1.0,2.0,77,0.00,,,0.00,Wunderground v.1.15,2013-06-02 04:37:00,
2013-06-02 00:43:00,73.2,65.6,29.77,East,101,0.0,1.0,77,0.00,,,0.00,Wunderground v.1.15,2013-06-02 04:43:00,
2013-06-02 00:48:00,72.7,65.8,29.77,East,101,0.0,1.0,79,0.00,,,0.00,Wunderground v.1.15,2013-06-02 04:48:00,
2013-06-02 00:53:00,72.4,65.5,29.76,NE,56,0.0,1.0,79,0.00,,,0.00,Wunderground v.1.15,2013-06-02 04:53:00,
2013-06-02 00:58:00,72.2,65.7,29.76,NE,56,0.0,1.0,80,0.00,,,0.00,Wunderground v.1.15,2013-06-02 04:58:00,
2013-06-02 01:04:00,71.9,65.4,29.76,NE,53,0.0,1.0,80,0.00,,,0.00,Wunderground v.1.15,2013-06-02 05:04:00,
2013-06-02 01:09:00,71.7,65.6,29.77,NE,53,0.0,1.0,81,0.00,,,0.00,Wunderground v.1.15,2013-06-02 05:09:00,
2013-06-02 01:14:00,71.5,65.4,29.77,NE,53,0.0,0.0,81,0.00,,,0.00,Wunderground v.1.15,2013-06-02 05:14:00,
2013-06-02 01:19:00,71.3,65.5,29.77,NE,53,0.0,0.0,82,0.00,,,0.00,Wunderground v.1.15,2013-06-02 05:19:00,
2013-06-02 01:25:00,71.1,65.3,29.76,NE,53,0.0,0.0,82,0.00,,,0.00,Wunderground v.1.15,2013-06-02 05:25:00,
2013-06-02 01:30:00,71.0,65.2,29.76,NE,53,0.0,0.0,82,0.00,,,0.00,Wunderground v.1.15,2013-06-02 05:30:00,
2013-06-02 01:35:00,71.1,65.3,29.76,NE,53,0.0,0.0,82,0.00,,,0.00,Wunderground v.1.15,2013-06-02 05:35:00,
2013-06-02 01:41:00,71.1,65.3,29.77,NE,53,0.0,0.0,82,0.00,,,0.00,Wunderground v.1.15,2013-06-02 05:41:00,
2013-06-02 01:46:00,71.2,65.4,29.77,East,82,0.0,2.0,82,0.00,,,0.00,Wunderground v.1.15,2013-06-02 05:46:00,
2013-06-02 01:51:00,71.2,65.4,29.77,East,82,0.0,0.0,82,0.00,,,0.00,Wunderground v.1.15,2013-06-02 05:51:00,
2013-06-02 01:57:00,71.0,65.2,29.77,East,82,0.0,0.0,82,0.00,,,0.00,Wunderground v.1.15,2013-06-02 05:57:00,
2013-06-02 02:02:00,71.0,65.6,29.77,SSE,156,0.0,0.0,83,0.00,,,0.00,Wunderground v.1.15,2013-06-02 06:02:00,
2013-06-02 02:07:00,71.0,65.2,29.77,SSE,156,0.0,0.0,82,0.00,,,0.00,Wunderground v.1.15,2013-06-02 06:07:00,
2013-06-02 02:12:00,71.1,65.3,29.77,SSE,156,0.0,0.0,82,0.00,,,0.00,Wunderground v.1.15,2013-06-02 06:12:00,
2013-06-02 02:17:00,71.1,65.3,29.77,SSE,156,0.0,0.0,82,0.00,,,0.00,Wunderground v.1.15,2013-06-02 06:17:00,
2013-06-02 02:22:00,71.3,65.5,29.77,SSE,156,0.0,0.0,82,0.00,,,0.00,Wunderground v.1.15,2013-06-02 06:22:00,
2013-06-02 02:28:00,71.6,65.5,29.77,NNE,29,0.0,1.0,81,0.00,,,0.00,Wunderground v.1.15,2013-06-02 06:28:00,
2013-06-02 02:33:00,71.8,65.3,29.77,NNE,29,0.0,1.0,80,0.00,,,0.00,Wunderground v.1.15,2013-06-02 06:33:00,
2013-06-02 02:38:00,72.1,65.2,29.77,ENE,74,0.0,1.0,79,0.00,,,0.00,Wunderground v.1.15,2013-06-02 06:38:00,
2013-06-02 02:44:00,72.2,65.0,29.77,East,88,0.0,1.0,78,0.00,,,0.00,Wunderground v.1.15,2013-06-02 06:44:00,
2013-06-02 02:49:00,72.5,64.9,29.77,ENE,73,0.0,1.0,77,0.00,,,0.00,Wunderground v.1.15,2013-06-02 06:49:00,
2013-06-02 02:54:00,72.8,65.2,29.76,South,171,0.0,1.0,77,0.00,,,0.00,Wunderground v.1.15,2013-06-02 06:54:00,
2013-06-02 02:59:00,73.0,65.4,29.77,ENE,67,0.0,1.0,77,0.00,,,0.00,Wunderground v.1.15,2013-06-02 06:59:00,
2013-06-02 03:05:00,73.2,65.6,29.77,SE,136,0.0,1.0,77,0.00,,,0.00,Wunderground v.1.15,2013-06-02 07:05:00,
2013-06-02 03:10:00,73.3,64.9,29.77,ENE,72,0.0,0.0,75,0.00,,,0.00,Wunderground v.1.15,2013-06-02 07:10:00,
2013-06-02 03:15:00,73.3,65.3,29.77,NNE,16,0.0,3.0,76,0.00,,,0.00,Wunderground v.1.15,2013-06-02 07:15:00,
2013-06-02 03:21:00,73.3,65.3,29.77,SSE,153,0.0,0.0,76,0.00,,,0.00,Wunderground v.1.15,2013-06-02 07:21:00,
2013-06-02 03:26:00,73.3,65.3,29.77,West,276,0.0,2.0,76,0.00,,,0.00,Wunderground v.1.15,2013-06-02 07:26:00,
2013-06-02 03:32:00,73.4,65.0,29.77,ESE,123,0.0,1.0,75,0.00,,,0.00,Wunderground v.1.15,2013-06-02 07:32:00,
2013-06-02 03:37:00,73.1,64.7,29.77,NNE,25,0.0,1.0,75,0.00,,,0.00,Wunderground v.1.15,2013-06-02 07:37:00,
2013-06-02 03:42:00,73.1,64.7,29.77,SSE,150,0.0,1.0,75,0.00,,,0.00,Wunderground v.1.15,2013-06-02 07:42:00,
2013-06-02 03:47:00,73.1,65.5,29.78,SSE,160,1.0,1.0,77,0.00,,,0.00,Wunderground v.1.15,2013-06-02 07:47:00,
2013-06-02 03:52:00,73.0,65.0,29.78,East,83,0.0,0.0,76,0.00,,,0.00,Wunderground v.1.15,2013-06-02 07:52:00,
2013-06-02 03:57:00,73.0,65.0,29.78,NNE,22,0.0,0.0,76,0.00,,,0.00,Wunderground v.1.15,2013-06-02 07:57:00,
2013-06-02 04:03:00,73.0,64.6,29.77,ESE,110,0.0,0.0,75,0.00,,,0.00,Wunderground v.1.15,2013-06-02 08:03:00,
2013-06-02 04:08:00,72.9,64.9,29.77,ESE,103,0.0,1.0,76,0.00,,,0.00,Wunderground v.1.15,2013-06-02 08:08:00,
2013-06-02 04:13:00,72.8,65.5,29.77,ESE,103,0.0,0.0,78,0.00,,,0.00,Wunderground v.1.15,2013-06-02 08:13:00,
2013-06-02 04:18:00,72.4,65.2,29.77,ESE,103,0.0,0.0,78,0.00,,,0.00,Wunderground v.1.15,2013-06-02 08:18:00,
2013-06-02 04:24:00,72.1,65.2,29.76,ESE,103,0.0,0.0,79,0.00,,,0.00,Wunderground v.1.15,2013-06-02 08:24:00,
2013-06-02 04:29:00,71.7,64.8,29.77,ESE,103,0.0,0.0,79,0.00,,,0.00,Wunderground v.1.15,2013-06-02 08:29:00,
2013-06-02 04:34:00,71.4,64.9,29.77,ESE,103,0.0,1.0,80,0.00,,,0.00,Wunderground v.1.15,2013-06-02 08:34:00,
2013-06-02 04:39:00,71.2,64.7,29.77,ESE,103,0.0,1.0,80,0.00,,,0.00,Wunderground v.1.15,2013-06-02 08:39:00,
2013-06-02 04:44:00,71.1,65.0,29.77,ESE,103,0.0,0.0,81,0.00,,,0.00,Wunderground v.1.15,2013-06-02 08:44:00,
2013-06-02 04:50:00,70.9,64.4,29.77,ESE,103,0.0,0.0,80,0.00,,,0.00,Wunderground v.1.15,2013-06-02 08:50:00,
2013-06-02 04:55:00,70.9,64.8,29.77,ESE,103,0.0,0.0,81,0.00,,,0.00,Wunderground v.1.15,2013-06-02 08:55:00,
2013-06-02 05:00:00,70.9,64.8,29.77,ESE,103,0.0,0.0,81,0.00,,,0.00,Wunderground v.1.15,2013-06-02 09:00:00,
2013-06-02 05:06:00,71.0,65.6,29.78,East,86,0.0,2.0,83,0.00,,,0.01,Wunderground v.1.15,2013-06-02 09:06:00,
2013-06-02 05:11:00,70.7,66.3,29.78,East,86,0.0,0.0,86,0.20,,,0.03,Wunderground v.1.15,2013-06-02 09:11:00,
2013-06-02 05:17:00,70.2,66.1,29.78,NE,34,0.0,0.0,87,0.16,,,0.04,Wunderground v.1.15,2013-06-02 09:17:00,
2013-06-02 05:22:00,69.8,65.8,29.78,NE,34,0.0,0.0,87,0.08,,,0.05,Wunderground v.1.15,2013-06-02 09:22:00,
2013-06-02 05:27:00,69.4,66.0,29.77,NE,34,0.0,0.0,89,0.13,,,0.06,Wunderground v.1.15,2013-06-02 09:27:00,
2013-06-02 05:33:00,69.1,66.0,29.78,NE,34,0.0,0.0,90,0.08,,,0.06,Wunderground v.1.15,2013-06-02 09:33:00,
2013-06-02 05:38:00,68.8,65.7,29.78,NE,34,0.0,0.0,90,0.05,,,0.06,Wunderground v.1.15,2013-06-02 09:38:00,
2013-06-02 05:43:00,68.6,65.9,29.78,NE,34,0.0,0.0,91,0.00,,,0.06,Wunderground v.1.15,2013-06-02 09:43:00,
2013-06-02 05:49:00,68.4,65.7,29.78,NE,34,0.0,0.0,91,0.00,,,0.07,Wunderground v.1.15,2013-06-02 09:49:00,
2013-06-02 05:54:00,68.3,65.9,29.78,NE,34,0.0,0.0,92,0.00,,,0.07,Wunderground v.1.15,2013-06-02 09:54:00,
2013-06-02 05:59:00,68.2,65.8,29.78,NNE,31,0.0,1.0,92,0.00,,,0.07,Wunderground v.1.15,2013-06-02 09:59:00,
2013-06-02 06:05:00,68.1,66.0,29.78,NNE,31,0.0,0.0,93,0.00,,,0.07,Wunderground v.1.15,2013-06-02 10:05:00,
2013-06-02 06:10:00,68.1,66.0,29.78,ESE,123,0.0,0.0,93,0.00,,,0.07,Wunderground v.1.15,2013-06-02 10:10:00,
2013-06-02 06:15:00,68.1,66.0,29.78,ESE,123,0.0,0.0,93,0.00,,,0.07,Wunderground v.1.15,2013-06-02 10:15:00,
2013-06-02 06:20:00,68.1,66.0,29.78,ESE,118,0.0,0.0,93,0.00,,,0.07,Wunderground v.1.15,2013-06-02 10:20:00,
2013-06-02 06:26:00,68.1,66.0,29.79,ESE,118,0.0,1.0,93,0.00,,,0.07,Wunderground v.1.15,2013-06-02 10:26:00,
2013-06-02 06:32:00,68.2,66.1,29.78,ESE,117,0.0,0.0,93,0.00,,,0.07,Wunderground v.1.15,2013-06-02 10:32:00,
2013-06-02 06:37:00,68.2,66.4,29.79,ESE,117,0.0,0.0,94,0.00,,,0.07,Wunderground v.1.15,2013-06-02 10:37:00,
2013-06-02 06:42:00,68.3,66.5,29.79,ESE,117,0.0,0.0,94,0.00,,,0.07,Wunderground v.1.15,2013-06-02 10:42:00,
2013-06-02 06:47:00,68.3,66.5,29.79,ESE,117,0.0,0.0,94,0.00,,,0.07,Wunderground v.1.15,2013-06-02 10:47:00,
2013-06-02 06:53:00,68.3,66.5,29.79,ESE,111,0.0,0.0,94,0.00,,,0.07,Wunderground v.1.15,2013-06-02 10:53:00,
2013-06-02 06:58:00,68.4,66.6,29.79,East,86,0.0,0.0,94,0.00,,,0.07,Wunderground v.1.15,2013-06-02 10:58:00,
2013-06-02 07:04:00,68.4,66.6,29.79,East,86,0.0,0.0,94,0.00,,,0.07,Wunderground v.1.15,2013-06-02 11:04:00,
2013-06-02 07:09:00,68.5,66.7,29.79,East,86,0.0,0.0,94,0.00,,,0.07,Wunderground v.1.15,2013-06-02 11:09:00,
2013-06-02 07:14:00,68.6,66.8,29.79,East,86,0.0,0.0,94,0.00,,,0.07,Wunderground v.1.15,2013-06-02 11:14:00,
2013-06-02 07:20:00,68.7,66.9,29.79,East,86,0.0,0.0,94,0.00,,,0.07,Wunderground v.1.15,2013-06-02 11:20:00,
2013-06-02 07:25:00,68.9,67.1,29.80,East,86,0.0,0.0,94,0.00,,,0.07,Wunderground v.1.15,2013-06-02 11:25:00,
2013-06-02 07:30:00,68.9,67.1,29.80,East,86,0.0,0.0,94,0.00,,,0.07,Wunderground v.1.15,2013-06-02 11:30:00,
2013-06-02 07:35:00,68.9,67.1,29.80,East,86,0.0,0.0,94,0.00,,,0.07,Wunderground v.1.15,2013-06-02 11:35:00,
2013-06-02 07:41:00,69.1,67.3,29.80,East,91,0.0,0.0,94,0.00,,,0.07,Wunderground v.1.15,2013-06-02 11:41:00,
2013-06-02 07:47:00,69.2,67.1,29.80,ENE,78,0.0,1.0,93,0.00,,,0.07,Wunderground v.1.15,2013-06-02 11:47:00,
2013-06-02 07:52:00,69.3,67.2,29.80,NE,37,0.0,4.0,93,0.00,,,0.07,Wunderground v.1.15,2013-06-02 11:52:00,
2013-06-02 07:57:00,69.4,67.3,29.80,NE,37,0.0,4.0,93,0.00,,,0.07,Wunderground v.1.15,2013-06-02 11:57:00,
2013-06-02 08:02:00,69.5,67.1,29.80,ENE,60,0.0,1.0,92,0.00,,,0.07,Wunderground v.1.15,2013-06-02 12:02:00,
2013-06-02 08:08:00,69.5,67.1,29.80,ENE,60,0.0,1.0,92,0.00,,,0.07,Wunderground v.1.15,2013-06-02 12:08:00,
2013-06-02 08:13:00,69.5,67.4,29.80,ENE,60,0.0,1.0,93,0.00,,,0.07,Wunderground v.1.15,2013-06-02 12:13:00,
2013-06-02 08:18:00,69.4,67.0,29.80,ENE,60,0.0,1.0,92,0.00,,,0.07,Wunderground v.1.15,2013-06-02 12:18:00,
2013-06-02 08:24:00,69.3,66.9,29.80,ENE,61,0.0,0.0,92,0.00,,,0.07,Wunderground v.1.15,2013-06-02 12:24:00,
2013-06-02 08:29:00,69.3,66.9,29.80,SSE,153,0.0,0.0,92,0.00,,,0.07,Wunderground v.1.15,2013-06-02 12:29:00,
2013-06-02 08:35:00,69.4,67.0,29.80,ENE,63,0.0,1.0,92,0.00,,,0.07,Wunderground v.1.15,2013-06-02 12:35:00,
2013-06-02 08:40:00,69.5,67.1,29.80,SE,125,0.0,0.0,92,0.00,,,0.07,Wunderground v.1.15,2013-06-02 12:40:00,
2013-06-02 08:45:00,69.6,66.9,29.80,NNE,24,1.0,3.0,91,0.00,,,0.07,Wunderground v.1.15,2013-06-02 12:45:00,
2013-06-02 08:50:00,69.8,67.4,29.80,SE,141,0.0,0.0,92,0.00,,,0.07,Wunderground v.1.15,2013-06-02 12:50:00,
2013-06-02 08:55:00,70.1,67.7,29.81,East,87,1.0,2.0,92,0.00,,,0.07,Wunderground v.1.15,2013-06-02 12:55:00,
2013-06-02 09:00:00,70.2,67.4,29.80,SSE,168,1.0,3.0,91,0.00,,,0.07,Wunderground v.1.15,2013-06-02 13:00:00,
2013-06-02 09:06:00,70.2,67.1,29.80,NE,52,1.0,3.0,90,0.00,,,0.07,Wunderground v.1.15,2013-06-02 13:06:00,
2013-06-02 09:11:00,70.2,67.1,29.81,NNE,29,1.0,3.0,90,0.00,,,0.07,Wunderground v.1.15,2013-06-02 13:11:00,
2013-06-02 09:16:00,70.1,66.7,29.81,SE,132,1.0,3.0,89,0.00,,,0.07,Wunderground v.1.15,2013-06-02 13:16:00,
2013-06-02 09:21:00,70.0,66.9,29.81,East,92,1.0,1.0,90,0.00,,,0.07,Wunderground v.1.15,2013-06-02 13:21:00,
2013-06-02 09:27:00,70.1,67.3,29.81,East,94,0.0,1.0,91,0.00,,,0.07,Wunderground v.1.15,2013-06-02 13:27:00,
2013-06-02 09:33:00,70.1,67.0,29.81,East,96,0.0,2.0,90,0.00,,,0.07,Wunderground v.1.15,2013-06-02 13:33:00,
2013-06-02 09:38:00,70.3,67.2,29.81,ESE,117,0.0,2.0,90,0.00,,,0.07,Wunderground v.1.15,2013-06-02 13:38:00,
2013-06-02 09:43:00,70.5,67.1,29.81,ESE,109,1.0,3.0,89,0.00,,,0.07,Wunderground v.1.15,2013-06-02 13:43:00,
2013-06-02 09:48:00,70.9,67.2,29.81,East,101,1.0,3.0,88,0.00,,,0.07,Wunderground v.1.15,2013-06-02 13:48:00,
2013-06-02 09:54:00,71.4,67.3,29.81,South,179,1.0,2.0,87,0.00,,,0.07,Wunderground v.1.15,2013-06-02 13:54:00,
2013-06-02 09:59:00,72.4,68.3,29.81,SSE,165,1.0,3.0,87,0.00,,,0.07,Wunderground v.1.15,2013-06-02 13:59:00,
2013-06-02 10:04:00,73.5,68.7,29.81,East,81,1.0,2.0,85,0.00,,,0.07,Wunderground v.1.15,2013-06-02 14:04:00,
2013-06-02 10:10:00,73.9,68.8,29.81,East,90,1.0,1.0,84,0.00,,,0.07,Wunderground v.1.15,2013-06-02 14:10:00,
2013-06-02 10:15:00,74.0,68.2,29.81,ESE,121,1.0,3.0,82,0.00,,,0.07,Wunderground v.1.15,2013-06-02 14:15:00,
2013-06-02 10:20:00,73.8,68.3,29.81,ENE,61,0.0,0.0,83,0.00,,,0.07,Wunderground v.1.15,2013-06-02 14:20:00,
2013-06-02 10:25:00,73.2,67.0,29.81,ESE,105,0.0,1.0,81,0.00,,,0.07,Wunderground v.1.15,2013-06-02 14:25:00,
2013-06-02 10:30:00,72.8,65.5,29.81,ESE,119,0.0,1.0,78,0.00,,,0.07,Wunderground v.1.15,2013-06-02 14:30:00,
2013-06-02 10:36:00,72.9,66.7,29.81,ENE,71,0.0,5.0,81,0.00,,,0.07,Wunderground v.1.15,2013-06-02 14:36:00,
2013-06-02 10:42:00,73.3,67.5,29.82,NE,53,0.0,1.0,82,0.00,,,0.07,Wunderground v.1.15,2013-06-02 14:42:00,
2013-06-02 10:47:00,73.7,66.8,29.82,SE,133,0.0,1.0,79,0.00,,,0.07,Wunderground v.1.15,2013-06-02 14:47:00,
2013-06-02 10:52:00,74.1,66.4,29.82,East,99,1.0,3.0,77,0.00,,,0.07,Wunderground v.1.15,2013-06-02 14:52:00,
2013-06-02 10:57:00,74.3,65.5,29.82,ESE,103,1.0,3.0,74,0.00,,,0.07,Wunderground v.1.15,2013-06-02 14:57:00,
2013-06-02 11:03:00,74.6,65.8,29.82,East,86,1.0,1.0,74,0.00,,,0.07,Wunderground v.1.15,2013-06-02 15:03:00,
2013-06-02 11:08:00,75.1,67.4,29.82,ESE,109,1.0,2.0,77,0.00,,,0.07,Wunderground v.1.15,2013-06-02 15:08:00,
2013-06-02 11:13:00,76.1,66.8,29.82,ESE,112,2.0,4.0,73,0.00,,,0.07,Wunderground v.1.15,2013-06-02 15:13:00,
2013-06-02 11:19:00,76.2,64.9,29.82,ESE,109,2.0,5.0,68,0.00,,,0.07,Wunderground v.1.15,2013-06-02 15:19:00,
2013-06-02 11:24:00,75.8,65.7,29.82,ESE,123,2.0,3.0,71,0.00,,,0.07,Wunderground v.1.15,2013-06-02 15:24:00,
2013-06-02 11:29:00,75.5,64.2,29.83,East,90,2.0,3.0,68,0.00,,,0.07,Wunderground v.1.15,2013-06-02 15:29:00,
2013-06-02 11:34:00,75.6,65.5,29.83,East,91,1.0,2.0,71,0.00,,,0.07,Wunderground v.1.15,2013-06-02 15:34:00,
2013-06-02 11:40:00,76.6,64.8,29.83,South,191,1.0,2.0,67,0.00,,,0.07,Wunderground v.1.15,2013-06-02 15:40:00,
2013-06-02 11:45:00,77.5,65.2,29.83,ESE,118,1.0,3.0,66,0.00,,,0.07,Wunderground v.1.15,2013-06-02 15:45:00,
2013-06-02 11:50:00,78.1,64.5,29.83,East,83,2.0,5.0,63,0.00,,,0.07,Wunderground v.1.15,2013-06-02 15:50:00,
2013-06-02 11:56:00,78.2,65.5,29.83,ENE,60,2.0,5.0,65,0.00,,,0.07,Wunderground v.1.15,2013-06-02 15:56:00,
2013-06-02 12:02:00,78.0,63.9,29.83,South,187,2.0,3.0,62,0.00,,,0.07,Wunderground v.1.15,2013-06-02 16:02:00,
2013-06-02 12:07:00,77.9,63.8,29.83,ESE,113,2.0,4.0,62,0.00,,,0.07,Wunderground v.1.15,2013-06-02 16:07:00,
2013-06-02 12:12:00,78.1,64.0,29.83,ENE,67,2.0,2.0,62,0.00,,,0.07,Wunderground v.1.15,2013-06-02 16:12:00,
2013-06-02 12:18:00,78.7,63.6,29.83,SE,141,2.0,2.0,60,0.00,,,0.07,Wunderground v.1.15,2013-06-02 16:18:00,
2013-06-02 12:23:00,79.3,63.2,29.82,ESE,111,1.0,2.0,58,0.00,,,0.07,Wunderground v.1.15,2013-06-02 16:23:00,
2013-06-02 12:28:00,79.7,63.1,29.82,NE,51,1.0,4.0,57,0.00,,,0.07,Wunderground v.1.15,2013-06-02 16:28:00,
2013-06-02 12:33:00,79.7,63.6,29.82,ESE,103,2.0,5.0,58,0.00,,,0.07,Wunderground v.1.15,2013-06-02 16:33:00,
2013-06-02 12:38:00,79.5,64.4,29.82,SSE,155,2.0,5.0,60,0.00,,,0.07,Wunderground v.1.15,2013-06-02 16:38:00,
2013-06-02 12:44:00,79.0,63.9,29.82,ESE,112,1.0,2.0,60,0.00,,,0.07,Wunderground v.1.15,2013-06-02 16:44:00,
2013-06-02 12:49:00,78.4,64.8,29.82,South,174,1.0,4.0,63,0.00,,,0.07,Wunderground v.1.15,2013-06-02 16:49:00,
2013-06-02 12:54:00,78.3,65.1,29.82,ESE,105,1.0,4.0,64,0.00,,,0.07,Wunderground v.1.15,2013-06-02 16:54:00,
2013-06-02 12:59:00,78.4,62.9,29.82,East,89,2.0,7.0,59,0.00,,,0.07,Wunderground v.1.15,2013-06-02 16:59:00,
2013-06-02 13:05:00,78.4,64.8,29.82,ESE,119,2.0,5.0,63,0.00,,,0.07,Wunderground v.1.15,2013-06-02 17:05:00,
2013-06-02 13:10:00,79.3,65.1,29.82,NNE,30,2.0,2.0,62,0.00,,,0.07,Wunderground v.1.15,2013-06-02 17:10:00,
2013-06-02 13:15:00,80.0,63.9,29.82,ESE,113,1.0,4.0,58,0.00,,,0.07,Wunderground v.1.15,2013-06-02 17:15:00,
2013-06-02 13:21:00,80.5,66.7,29.82,SE,142,1.0,1.0,63,0.00,,,0.07,Wunderground v.1.15,2013-06-02 17:21:00,
2013-06-02 13:27:00,80.0,62.4,29.82,NE,43,1.0,7.0,55,0.00,,,0.07,Wunderground v.1.15,2013-06-02 17:27:00,
2013-06-02 13:32:00,80.0,62.9,29.81,NE,37,2.0,4.0,56,0.00,,,0.07,Wunderground v.1.15,2013-06-02 17:32:00,
2013-06-02 13:37:00,79.8,62.7,29.82,ENE,76,2.0,4.0,56,0.00,,,0.07,Wunderground v.1.15,2013-06-02 17:37:00,
2013-06-02 13:42:00,80.1,62.5,29.81,East,85,1.0,1.0,55,0.00,,,0.07,Wunderground v.1.15,2013-06-02 17:42:00,
2013-06-02 13:47:00,80.7,63.0,29.81,NE,55,1.0,4.0,55,0.00,,,0.07,Wunderground v.1.15,2013-06-02 17:47:00,
2013-06-02 13:53:00,80.8,63.6,29.81,SW,229,2.0,3.0,56,0.00,,,0.07,Wunderground v.1.15,2013-06-02 17:53:00,
2013-06-02 13:58:00,80.8,63.1,29.81,ESE,111,2.0,7.0,55,0.00,,,0.07,Wunderground v.1.15,2013-06-02 17:58:00,
2013-06-02 14:03:00,80.7,62.5,29.81,ESE,103,2.0,2.0,54,0.00,,,0.07,Wunderground v.1.15,2013-06-02 18:03:00,
2013-06-02 14:09:00,80.8,63.1,29.81,ENE,62,1.0,2.0,55,0.00,,,0.07,Wunderground v.1.15,2013-06-02 18:09:00,
2013-06-02 14:14:00,81.2,61.4,29.81,ESE,109,1.0,3.0,51,0.00,,,0.07,Wunderground v.1.15,2013-06-02 18:14:00,
2013-06-02 14:19:00,81.4,62.6,29.81,SE,140,1.0,4.0,53,0.00,,,0.07,Wunderground v.1.15,2013-06-02 18:19:00,
2013-06-02 14:24:00,81.2,63.0,29.81,ENE,61,1.0,4.0,54,0.00,,,0.07,Wunderground v.1.15,2013-06-02 18:24:00,
2013-06-02 14:30:00,81.2,64.5,29.81,ESE,115,2.0,4.0,57,0.00,,,0.07,Wunderground v.1.15,2013-06-02 18:30:00,
2013-06-02 14:35:00,81.0,63.8,29.81,ESE,119,1.0,4.0,56,0.00,,,0.07,Wunderground v.1.15,2013-06-02 18:35:00,
2013-06-02 14:40:00,80.3,63.2,29.81,ESE,115,1.0,1.0,56,0.00,,,0.07,Wunderground v.1.15,2013-06-02 18:40:00,
2013-06-02 14:45:00,79.8,66.1,29.81,ESE,118,1.0,7.0,63,0.00,,,0.07,Wunderground v.1.15,2013-06-02 18:45:00,
2013-06-02 14:51:00,79.5,64.9,29.81,SSE,155,1.0,1.0,61,0.00,,,0.07,Wunderground v.1.15,2013-06-02 18:51:00,
2013-06-02 14:57:00,78.7,65.0,29.81,East,101,0.0,6.0,63,0.00,,,0.07,Wunderground v.1.15,2013-06-02 18:57:00,
2013-06-02 15:03:00,78.2,64.6,29.81,ESE,107,0.0,1.0,63,0.00,,,0.07,Wunderground v.1.15,2013-06-02 19:03:00,
2013-06-02 15:08:00,78.4,62.9,29.81,NE,40,1.0,5.0,59,0.00,,,0.07,Wunderground v.1.15,2013-06-02 19:08:00,
2013-06-02 15:14:00,78.7,65.5,29.81,NE,45,1.0,1.0,64,0.00,,,0.07,Wunderground v.1.15,2013-06-02 19:14:00,
2013-06-02 15:19:00,78.9,63.4,29.81,SE,134,1.0,2.0,59,0.00,,,0.07,Wunderground v.1.15,2013-06-02 19:19:00,
2013-06-02 15:24:00,79.2,64.6,29.81,ESE,117,1.0,1.0,61,0.00,,,0.07,Wunderground v.1.15,2013-06-02 19:24:00,
2013-06-02 15:29:00,78.9,65.7,29.81,NE,46,1.0,1.0,64,0.00,,,0.07,Wunderground v.1.15,2013-06-02 19:29:00,
2013-06-02 15:34:00,78.6,63.6,29.81,ESE,117,1.0,2.0,60,0.00,,,0.07,Wunderground v.1.15,2013-06-02 19:34:00,
2013-06-02 15:40:00,78.6,63.6,29.81,SE,129,1.0,4.0,60,0.00,,,0.07,Wunderground v.1.15,2013-06-02 19:40:00,
2013-06-02 15:45:00,78.5,63.0,29.81,SE,130,1.0,4.0,59,0.00,,,0.07,Wunderground v.1.15,2013-06-02 19:45:00,
2013-06-02 15:50:00,78.1,65.8,29.81,SE,130,1.0,1.0,66,0.00,,,0.07,Wunderground v.1.15,2013-06-02 19:50:00,
2013-06-02 15:55:00,77.3,63.7,29.81,SE,130,0.0,1.0,63,0.00,,,0.07,Wunderground v.1.15,2013-06-02 19:55:00,
2013-06-02 16:00:00,77.1,64.4,29.80,ESE,112,0.0,0.0,65,0.00,,,0.07,Wunderground v.1.15,2013-06-02 20:00:00,
2013-06-02 16:06:00,77.3,66.3,29.81,ESE,121,1.0,1.0,69,0.00,,,0.07,Wunderground v.1.15,2013-06-02 20:06:00,
2013-06-02 16:11:00,77.5,65.2,29.81,SE,138,1.0,2.0,66,0.00,,,0.07,Wunderground v.1.15,2013-06-02 20:11:00,
2013-06-02 16:16:00,77.8,62.8,29.81,ENE,66,1.0,2.0,60,0.00,,,0.07,Wunderground v.1.15,2013-06-02 20:16:00,
2013-06-02 16:22:00,78.2,63.2,29.80,SE,140,1.0,2.0,60,0.00,,,0.07,Wunderground v.1.15,2013-06-02 20:22:00,
2013-06-02 16:27:00,78.2,64.1,29.80,East,99,1.0,2.0,62,0.00,,,0.07,Wunderground v.1.15,2013-06-02 20:27:00,
2013-06-02 16:32:00,78.3,61.8,29.80,ENE,73,1.0,3.0,57,0.00,,,0.07,Wunderground v.1.15,2013-06-02 20:32:00,
2013-06-02 16:38:00,78.4,65.2,29.80,East,86,1.0,3.0,64,0.00,,,0.07,Wunderground v.1.15,2013-06-02 20:38:00,
2013-06-02 16:43:00,78.1,64.9,29.80,ESE,121,1.0,1.0,64,0.00,,,0.07,Wunderground v.1.15,2013-06-02 20:43:00,
2013-06-02 16:48:00,78.0,63.9,29.80,ENE,74,0.0,1.0,62,0.00,,,0.07,Wunderground v.1.15,2013-06-02 20:48:00,
2013-06-02 16:54:00,77.8,66.4,29.80,ENE,71,0.0,0.0,68,0.00,,,0.07,Wunderground v.1.15,2013-06-02 20:54:00,
2013-06-02 16:59:00,77.7,66.3,29.80,SE,128,0.0,2.0,68,0.00,,,0.07,Wunderground v.1.15,2013-06-02 20:59:00,
2013-06-02 17:05:00,77.4,65.6,29.80,SE,130,0.0,1.0,67,0.00,,,0.07,Wunderground v.1.15,2013-06-02 21:05:00,
2013-06-02 17:11:00,77.0,65.6,29.79,SE,129,0.0,2.0,68,0.00,,,0.07,Wunderground v.1.15,2013-06-02 21:11:00,
2013-06-02 17:17:00,76.9,64.2,29.79,SE,138,1.0,2.0,65,0.00,,,0.07,Wunderground v.1.15,2013-06-02 21:17:00,
2013-06-02 17:22:00,76.7,65.8,29.79,SE,134,0.0,1.0,69,0.00,,,0.07,Wunderground v.1.15,2013-06-02 21:22:00,
2013-06-02 17:27:00,76.4,65.1,29.80,ESE,120,0.0,1.0,68,0.00,,,0.07,Wunderground v.1.15,2013-06-02 21:27:00,
2013-06-02 17:33:00,76.3,63.2,29.79,South,184,1.0,2.0,64,0.00,,,0.07,Wunderground v.1.15,2013-06-02 21:33:00,
2013-06-02 17:38:00,76.3,65.0,29.79,SSE,158,1.0,2.0,68,0.00,,,0.07,Wunderground v.1.15,2013-06-02 21:38:00,
2013-06-02 17:43:00,76.4,64.6,29.79,SE,124,1.0,3.0,67,0.00,,,0.07,Wunderground v.1.15,2013-06-02 21:43:00,
2013-06-02 17:48:00,76.2,64.4,29.79,SE,124,0.0,3.0,67,0.00,,,0.07,Wunderground v.1.15,2013-06-02 21:48:00,
2013-06-02 17:53:00,76.0,64.7,29.79,SE,124,0.0,0.0,68,0.00,,,0.07,Wunderground v.1.15,2013-06-02 21:53:00,
2013-06-02 17:58:00,75.7,63.5,29.79,SE,124,0.0,0.0,66,0.00,,,0.07,Wunderground v.1.15,2013-06-02 21:58:00,
2013-06-02 18:04:00,75.8,64.1,29.79,ESE,111,0.0,2.0,67,0.00,,,0.07,Wunderground v.1.15,2013-06-02 22:04:00,
2013-06-02 18:09:00,75.8,64.1,29.79,SE,129,1.0,2.0,67,0.00,,,0.07,Wunderground v.1.15,2013-06-02 22:09:00,
2013-06-02 18:14:00,75.7,64.4,29.78,SE,134,0.0,2.0,68,0.00,,,0.07,Wunderground v.1.15,2013-06-02 22:14:00,
2013-06-02 18:19:00,75.7,63.5,29.78,SE,134,0.0,2.0,66,0.00,,,0.07,Wunderground v.1.15,2013-06-02 22:19:00,
2013-06-02 18:24:00,75.5,63.8,29.79,ESE,103,0.0,0.0,67,0.00,,,0.07,Wunderground v.1.15,2013-06-02 22:24:00,
2013-06-02 18:30:00,75.0,65.0,29.79,ESE,104,0.0,0.0,71,0.00,,,0.07,Wunderground v.1.15,2013-06-02 22:30:00,
2013-06-02 18:35:00,74.8,64.8,29.79,ESE,104,0.0,0.0,71,0.00,,,0.07,Wunderground v.1.15,2013-06-02 22:35:00,
2013-06-02 18:40:00,74.5,64.1,29.79,ESE,104,0.0,0.0,70,0.00,,,0.07,Wunderground v.1.15,2013-06-02 22:40:00,
2013-06-02 18:45:00,74.2,64.2,29.79,ESE,104,0.0,0.0,71,0.00,,,0.07,Wunderground v.1.15,2013-06-02 22:45:00,
2013-06-02 18:50:00,73.9,64.3,29.79,ESE,103,0.0,0.0,72,0.00,,,0.07,Wunderground v.1.15,2013-06-02 22:50:00,
2013-06-02 18:56:00,73.8,63.4,29.79,ESE,119,0.0,1.0,70,0.00,,,0.07,Wunderground v.1.15,2013-06-02 22:56:00,
2013-06-02 19:02:00,73.6,64.4,29.79,ESE,119,0.0,0.0,73,0.00,,,0.07,Wunderground v.1.15,2013-06-02 23:02:00,
2013-06-02 19:08:00,73.2,62.8,29.79,ESE,103,0.0,0.0,70,0.00,,,0.07,Wunderground v.1.15,2013-06-02 23:08:00,
2013-06-02 19:13:00,72.9,62.1,29.79,ESE,103,0.0,0.0,69,0.00,,,0.07,Wunderground v.1.15,2013-06-02 23:13:00,
2013-06-02 19:18:00,72.7,63.1,29.79,ESE,103,0.0,0.0,72,0.00,,,0.07,Wunderground v.1.15,2013-06-02 23:18:00,
2013-06-02 19:23:00,72.4,62.5,29.79,ESE,103,0.0,0.0,71,0.00,,,0.07,Wunderground v.1.15,2013-06-02 23:23:00,
2013-06-02 19:28:00,72.3,62.4,29.79,ESE,103,0.0,0.0,71,0.00,,,0.07,Wunderground v.1.15,2013-06-02 23:28:00,
2013-06-02 19:34:00,72.3,63.2,29.80,ESE,103,0.0,0.0,73,0.00,,,0.07,Wunderground v.1.15,2013-06-02 23:34:00,
2013-06-02 19:39:00,72.3,62.0,29.80,ESE,103,0.0,0.0,70,0.00,,,0.07,Wunderground v.1.15,2013-06-02 23:39:00,
2013-06-02 19:44:00,72.4,63.3,29.80,ESE,103,0.0,0.0,73,0.00,,,0.07,Wunderground v.1.15,2013-06-02 23:44:00,
2013-06-02 19:50:00,72.4,61.7,29.80,ESE,103,0.0,0.0,69,0.00,,,0.07,Wunderground v.1.15,2013-06-02 23:50:00,
2013-06-02 19:55:00,72.2,62.3,29.80,ESE,103,0.0,0.0,71,0.00,,,0.07,Wunderground v.1.15,2013-06-02 23:55:00,
2013-06-02 20:00:00,72.0,61.7,29.80,ESE,103,0.0,0.0,70,0.00,,,0.07,Wunderground v.1.15,2013-06-03 00:00:00,
2013-06-02 20:06:00,71.9,60.8,29.81,ESE,103,0.0,0.0,68,0.00,,,0.07,Wunderground v.1.15,2013-06-03 00:06:00,
2013-06-02 20:11:00,71.8,61.5,29.81,ESE,103,0.0,0.0,70,0.00,,,0.07,Wunderground v.1.15,2013-06-03 00:11:00,
2013-06-02 20:17:00,71.7,62.2,29.81,ESE,103,0.0,0.0,72,0.00,,,0.07,Wunderground v.1.15,2013-06-03 00:17:00,
2013-06-02 20:22:00,71.5,61.2,29.81,ESE,103,0.0,0.0,70,0.00,,,0.07,Wunderground v.1.15,2013-06-03 00:22:00,
2013-06-02 20:27:00,71.5,62.0,29.81,ESE,103,0.0,0.0,72,0.00,,,0.07,Wunderground v.1.15,2013-06-03 00:27:00,
2013-06-02 20:32:00,71.5,60.8,29.81,ESE,103,0.0,0.0,69,0.00,,,0.07,Wunderground v.1.15,2013-06-03 00:32:00,
2013-06-02 20:38:00,71.6,62.9,29.81,ESE,103,0.0,0.0,74,0.00,,,0.07,Wunderground v.1.15,2013-06-03 00:38:00,
2013-06-02 20:43:00,71.4,61.9,29.82,ESE,103,0.0,0.0,72,0.00,,,0.07,Wunderground v.1.15,2013-06-03 00:43:00,
2013-06-02 20:48:00,71.1,61.6,29.81,ESE,103,0.0,0.0,72,0.00,,,0.07,Wunderground v.1.15,2013-06-03 00:48:00,
2013-06-02 20:54:00,70.9,62.6,29.81,ESE,103,0.0,0.0,75,0.00,,,0.07,Wunderground v.1.15,2013-06-03 00:54:00,
2013-06-02 20:59:00,70.6,62.3,29.82,ESE,103,0.0,0.0,75,0.00,,,0.07,Wunderground v.1.15,2013-06-03 00:59:00,
2013-06-02 21:04:00,70.2,61.5,29.82,ESE,103,0.0,0.0,74,0.00,,,0.07,Wunderground v.1.15,2013-06-03 01:04:00,
2013-06-02 21:10:00,69.9,61.6,29.82,ESE,103,0.0,0.0,75,0.00,,,0.07,Wunderground v.1.15,2013-06-03 01:10:00,
2013-06-02 21:15:00,69.6,61.7,29.82,ESE,103,0.0,0.0,76,0.00,,,0.07,Wunderground v.1.15,2013-06-03 01:15:00,
2013-06-02 21:20:00,69.4,61.5,29.82,ESE,103,0.0,0.0,76,0.00,,,0.07,Wunderground v.1.15,2013-06-03 01:20:00,
2013-06-02 21:25:00,69.1,61.2,29.82,ESE,103,0.0,0.0,76,0.00,,,0.07,Wunderground v.1.15,2013-06-03 01:25:00,
2013-06-02 21:31:00,68.9,61.0,29.83,ESE,103,0.0,0.0,76,0.00,,,0.07,Wunderground v.1.15,2013-06-03 01:31:00,
2013-06-02 21:37:00,68.6,61.1,29.83,ESE,103,0.0,0.0,77,0.00,,,0.07,Wunderground v.1.15,2013-06-03 01:37:00,
2013-06-02 21:42:00,68.3,60.8,29.83,ESE,103,0.0,0.0,77,0.00,,,0.07,Wunderground v.1.15,2013-06-03 01:42:00,
2013-06-02 21:48:00,68.1,61.3,29.83,ESE,103,0.0,0.0,79,0.00,,,0.07,Wunderground v.1.15,2013-06-03 01:48:00,
2013-06-02 21:54:00,67.8,61.0,29.83,ESE,103,0.0,0.0,79,0.00,,,0.07,Wunderground v.1.15,2013-06-03 01:54:00,
2013-06-02 21:59:00,67.6,60.9,29.83,ESE,103,0.0,0.0,79,0.00,,,0.07,Wunderground v.1.15,2013-06-03 01:59:00,
2013-06-02 22:04:00,67.4,60.7,29.84,ESE,103,0.0,0.0,79,0.00,,,0.07,Wunderground v.1.15,2013-06-03 02:04:00,
2013-06-02 22:10:00,67.2,59.7,29.84,ESE,103,0.0,0.0,77,0.00,,,0.07,Wunderground v.1.15,2013-06-03 02:10:00,
2013-06-02 22:15:00,67.0,60.6,29.84,ESE,103,0.0,0.0,80,0.00,,,0.07,Wunderground v.1.15,2013-06-03 02:15:00,
2013-06-02 22:21:00,66.8,60.4,29.84,ESE,103,0.0,0.0,80,0.00,,,0.07,Wunderground v.1.15,2013-06-03 02:21:00,
2013-06-02 22:26:00,66.6,60.6,29.84,ESE,103,0.0,0.0,81,0.00,,,0.07,Wunderground v.1.15,2013-06-03 02:26:00,
2013-06-02 22:32:00,66.3,60.3,29.84,ESE,103,0.0,0.0,81,0.00,,,0.07,Wunderground v.1.15,2013-06-03 02:32:00,
2013-06-02 22:37:00,66.1,60.1,29.84,ESE,103,0.0,0.0,81,0.00,,,0.07,Wunderground v.1.15,2013-06-03 02:37:00,
2013-06-02 22:42:00,65.9,60.2,29.84,ESE,103,0.0,0.0,82,0.00,,,0.07,Wunderground v.1.15,2013-06-03 02:42:00,
2013-06-02 22:48:00,65.6,60.0,29.84,ESE,103,0.0,0.0,82,0.00,,,0.07,Wunderground v.1.15,2013-06-03 02:48:00,
2013-06-02 22:53:00,65.4,59.8,29.84,ESE,103,0.0,0.0,82,0.00,,,0.07,Wunderground v.1.15,2013-06-03 02:53:00,
2013-06-02 22:59:00,65.2,60.2,29.84,ESE,103,0.0,0.0,84,0.00,,,0.07,Wunderground v.1.15,2013-06-03 02:59:00,
2013-06-02 23:05:00,65.1,60.1,29.84,ESE,103,0.0,0.0,84,0.00,,,0.07,Wunderground v.1.15,2013-06-03 03:05:00,
2013-06-02 23:10:00,64.9,59.6,29.84,ESE,103,0.0,0.0,83,0.00,,,0.07,Wunderground v.1.15,2013-06-03 03:10:00,
2013-06-02 23:17:00,64.8,60.2,29.84,ESE,103,0.0,0.0,85,0.00,,,0.07,Wunderground v.1.15,2013-06-03 03:17:00,
2013-06-02 23:22:00,64.6,59.7,29.84,ESE,103,0.0,0.0,84,0.00,,,0.07,Wunderground v.1.15,2013-06-03 03:22:00,
2013-06-02 23:27:00,64.5,59.9,29.84,ESE,103,0.0,0.0,85,0.00,,,0.07,Wunderground v.1.15,2013-06-03 03:27:00,
2013-06-02 23:32:00,64.3,59.7,29.84,ESE,103,0.0,0.0,85,0.00,,,0.07,Wunderground v.1.15,2013-06-03 03:32:00,
2013-06-02 23:38:00,64.2,59.6,29.84,ESE,103,0.0,0.0,85,0.00,,,0.07,Wunderground v.1.15,2013-06-03 03:38:00,
2013-06-02 23:43:00,64.1,59.8,29.84,ESE,103,0.0,0.0,86,0.00,,,0.07,Wunderground v.1.15,2013-06-03 03:43:00,
2013-06-02 23:48:00,64.1,60.2,29.84,ESE,103,0.0,0.0,87,0.00,,,0.07,Wunderground v.1.15,2013-06-03 03:48:00,
2013-06-02 23:54:00,64.1,59.8,29.84,ESE,103,0.0,0.0,86,0.00,,,0.07,Wunderground v.1.15,2013-06-03 03:54:00,
2013-06-02 23:59:00,64.1,59.5,29.84,ESE,103,0.0,0.0,85,0.00,,,0.07,Wunderground v.1.15,2013-06-03 03:59:00,